Погода в Ворце

Россия / Удмуртская Республика     58°06′12″N   52°09′04″E
темп.,
°C
ветер,
м/с
пор.,
м/с
влажн.,
%
обл.,
%
осадки,
мм/ч
давл.,
гПа
погр.,
м
18 мая, вт
вт1801:00+14с368438 0.0 1018125
04:00+12ссз348837 0.0 101970
07:00+15с357218 0.0 1019304
10:00+20с345450 0.0 10191013
13:00+22с344497 0.0 10191487
16:00+24ссв344011 0.0 10191769
19:00+20св47564 0.0 1020354
22:00+15в367314 0.0 1021114
19 мая, ср
ср1901:00+13вюв387944 0.0 1021144
04:00+12вюв3984100 0.0 1022185
07:00+15вюв4973100 0.0 1023363
10:00+19юв465142 0.0 1023875
13:00+23вюв563788 0.0 10221239
16:00+24юв453535 0.0 10211429
19:00+21вюв375142 0.0 1021209
22:00+15юв38631 0.0 1021119
20 мая, чт
чт2001:00+13ююв34704 0.0 102156
04:00+12юв35713 0.0 102270
07:00+16юв36621 0.0 1021204
10:00+22юв34431 0.0 1020796
13:00+25ююв34340 0.0 10191809
16:00+26ююв34323 0.0 10182175
19:00+22ю36525 0.0 1017184
22:00+16ююв310624 0.0 1017177
21 мая, пт
пт2101:00+14ююв36650 0.0 101786
04:00+13юв37698 0.0 1017120
07:00+17юв512639 0.0 1016370
10:00+22ююв7113956 0.0 10141557
13:00+22ю7114943 0.0 10141917
16:00+21ю7105695 0.3 10141526
19:00+19ююз59675 0.3 1014933
22:00+15ю5128249 0.3 1014441
22 мая, сб
сб2201:00+14ююз51290100 0.0 1015426
04:00+12ююз410941 0.0 1017342
07:00+14юз5983100 0.0 1018564
10:00+16зюз676292 0.0 10181307
13:00+17з5759100 0.0 10191439
16:00+17з576398 0.1 10201059
19:00+14з2482100 0.1 1019240
22:00+11вюв1197100 10.7 1019113